timestamp,gas_concentrations,,corrected_fluxes_and_quality_flags,,,,,,,,,,storage_terms,,,turbulence,,,footprint,,
ISOdate,CO2_1_1_1,H2O_1_1_1,Tau_1_1_1,QcTau_1_1_1,H_1_1_1,QcH_1_1_1,LE_1_1_1, QcLE_1_1_1,Fc_1_1_1, QcFc_1_1_1,E_1_1_1, QcE_1_1_1,Sa_1_1_1,Sw_1_1_1,Sc_1_1_1,ustar_1_1_1,MO_length_1_1_1,ZL_1_1_1,Fetchmax_1_1_1,Fetch70_1_1_1,Fetch90_1_1_1
yyyymmddHHMM,[µmol+1mol_a-1],[mmol+1mol_a-1],[kg+1m-1s-2],[#],[W+1m-2],[#],[W+1m-2],[#],[µmol+1s-1m-2],[#],[mmol+1s-1m-2],[#],[W+1m-2],[W+1m-2],[µmol+1s-1m-2],[m+1s-1],[m],[#],[m],[m],[m]
201810040030,459.48184098216723,22.185062089493023,1.1384659514776632,0,-26.795052222805811,0,119.19216505694651,1,-16.448248653618535,2,2.6960449415872643,1,-9999.,-9999.,-9999.,1.0189357724717707,3276.2086171692986,6.59298674901318688E-003,106.69511058739711,195.07269081396254,292.25443773768018
201810040100,682.92310079905610,22.156019848597474,1.1260006603933188,0,-25.974345875535768,0,-143.01476477145633,1,61.454178929915635,1,-3.2353145888999957,1,2.9074704651064320,-0.95286443955055333,165.84409298937473,1.0134255852013379,3325.8512614111114,6.49457786961748530E-003,108.94164251348212,199.18006766945496,298.40803672926580
201810040130,467.05679241136897,18.279134858018097,2.2104569913981273,0,-126.49852506754097,1,954.00482974044894,1,-38.846313531948518,2,21.526904556443121,1,-57.773249997552121,-128.90842514125143,-161.96242158990950,1.4112254938371158,1845.0244448261742,1.17071619623093977E-002,126.16373364170614,230.66754295609442,345.58201247788583
201810040200,474.24409753725570,16.515256357347113,2.0566919061761055,0,23.583869982856598,1,-9999.,-9999.,-192.39022260039556,0,-9999.,-9999.,-38.583339794679155,16899.147574679129,5.4296685984892870,1.3561423725333079,-8784.2097784171474,-2.45895766891534445E-003,118.56923929373792,216.78238514826714,324.77951587473206
201810040230,461.30766535211256,15.395768274637902,1.9907746185016086,0,-46.240663941149101,2,-9999.,-9999.,52.826920698560464,2,-9999.,-9999.,-23.149509169828907,10786.970126947286,-9.8190475920998104,1.3308080851204169,4236.1193416126889,5.09900648638876401E-003,118.23818507572246,216.17711245340743,323.87270708270643
201810040300,481.33431534776105,14.560913077502654,1.7918101491286973,0,-63.370307358433713,1,-9999.,-9999.,65.384673595265340,0,-9999.,-9999.,-17.365494219466321,8082.4640089844697,15.261248101867071,1.2598475360143140,2624.4286902763351,8.23036269951981855E-003,115.65887113250834,211.46130393522230,316.80756658964208
201810040330,448.65361222124756,13.684771666379760,1.8215034892051127,0,184.09545267612353,0,269.53659373946056,2,34.484193944938895,2,6.0577418101745391,2,-13.088150293208294,-29.798818849396444,-24.980967676772273,1.2680798810852767,-921.74684384306988,-2.34337661628895855E-002,106.44772450282177,194.62039015161389,291.57680892551014
201810040400,416.70453560226923,12.465340827739448,1.6630031177663587,0,-16.861287997711351,2,371.24545441882162,1,135.50893123206828,2,8.3349944153645055,1,-24.142842734717547,-41.714042898822839,-24.537346106454567,1.2085143435977013,8715.1508656823480,2.47844246564386242E-003,104.99765558880999,191.96920170104050,287.60484551676268
201810040430,462.44245788629098,11.379492740755666,2.0391167981187133,0,-198.91277565453859,2,1196.2690414720262,1,-183.64391411956080,1,26.820226085447096,1,-33.079702600306760,-37.427560869156814,35.345363940014572,1.3338082288147113,993.69697452170010,2.17370089210514213E-002,113.26821268758391,207.09041783649590,310.25918273402090
201810040530,420.07179536544436,7.9400678352917513,2.4427445109035588,0,7.8360298831570141,0,377.60276774152436,0,-29.433190606770594,1,8.4348040886252278,0,-9999.,-9999.,-9999.,1.4466182728565153,-32236.046401335851,-6.70057355392840752E-004,115.53557583391863,211.23588080638172,316.46984166516654
201810040600,451.19712901832537,7.4804372133507080,1.5004288287551433,0,33.636655882458498,0,-9999.,-9999.,-4.1941180067346249,2,-9999.,-9999.,-32.221372031380668,4657.2638155192490,24.626846253384929,1.1298983278916650,-3582.2048135900523,-6.02980597816591118E-003,105.01413756248434,191.99933600557310,287.64999219614174
201810040630,410.69292053070569,6.5721022559531797,1.8722438059016289,0,17.069599979737099,0,75.738769633065246,0,2.9768629547755698,0,1.6879593030308218,0,-23.405882417520200,-32.405990883042122,-32.204988813968811,1.2588499750600812,-9769.3166920488220,-2.21100417571477555E-003,110.08913603800042,201.27805180656333,301.55119926941819
201810040700,409.45495384573906,6.1846788853607526,2.1243338600774853,0,23.212361889393311,1,115.92436112109827,0,4.2931120836934245,0,2.5824859811516490,0,-10.143044631140006,-13.860880039422533,-0.98668200752560720,1.3392129731429678,-8654.1109322669272,-2.49592363317925744E-003,116.68297814941525,213.33369818430882,319.61275436967793
201810040730,409.28241444848362,5.9969754912535347,1.6549732225841223,0,-10.575492319276460,2,39.059695860587382,1,2.1171344778950556,0,0.86981330777842936,1,-9.3611776355609813,-6.7351199940613915,-0.13786647735001173,1.1805033509935847,13020.104778292553,1.65897282455146344E-003,110.91595236313159,202.78973574844491,303.81597727923719
201810040800,409.00325849817415,5.7305300257678295,0.94161391227292346,0,2.6070402650130582,1,71.333024870250100,0,2.4223892439571091,1,1.5876481259801041,0,-13.210662475143383,-9.5939469319092847,-0.22371725514056051,0.88908882227739183,-22576.631469678086,-9.56741488605606814E-004,99.177414856360144,181.32794537154820,271.66230444439799
201810040830,409.08713364186013,5.5873655519673155,0.61986582933034051,0,-13.295820977099764,0,39.585490149543702,0,1.6697081772397855,0,0.88077103162323822,0,-7.7462312696682600,-5.1673940946011836,6.73591496491328517E-002,0.72059363495411244,2358.2695685540652,9.15925824936277000E-003,94.476373060720732,172.73294164873838,258.78542265288860
201810040900,409.33101143405884,5.6609943061046240,0.75619398191111287,0,-14.333369412577007,0,48.583559454333191,0,2.7491618509314701,0,1.0808089349165964,0,-3.8277160730711679,2.6616404801111657,0.19612537729308710,0.79536253724469175,2943.2828932672819,7.33874411100940947E-003,108.14724905928607,197.72766307638707,296.23206998608140
201810040930,409.21873660715664,5.7416891793850438,1.0881552291218548,0,-5.39924792367850528E-002,1,47.718754796622875,0,4.3026087068255627,0,1.0616071336725603,0,0.85963951725745114,2.9181447338208439,-9.03270869009562272E-002,0.95392351212892723,1348539.9794222149,1.60173226820124165E-005,104.98022255994152,191.93732856428957,287.55709374986384
201810041000,408.10812766352757,5.5304895350303491,1.2955047838398406,0,5.3692723468134291,0,61.864809545671662,0,2.7407070244959764,0,1.3762235102422564,0,-1.6744071893258783,-7.6475541358217693,-0.89461430092995076,1.0401613890002379,-17592.694300007355,-1.22778237555068361E-003,105.62074868960401,193.10841461464389,289.31159405311308
201810041030,408.19281419972577,5.2292505983902791,0.80949953290668930,0,-35.454325870772848,1,29.239155482164037,0,1.7808016180704451,1,0.65023077019388220,0,-8.1296113798298020,-10.933275755232406,6.83527919529629824E-002,0.82135541544562329,1312.4299144928173,1.64580216905123103E-002,105.12277889602360,192.19796701265906,287.94757764006499
201810041100,408.40226810805905,5.3082427810838446,0.67200511463822343,0,-18.309857207375877,1,17.217225755324755,1,0.95472607815215949,0,0.38283966121644886,1,-2.7931370930518820,2.8695819121009896,0.16919079441431914,0.74807032240539195,1920.4928461133889,1.12471129708778435E-002,104.72476258008183,191.47026624632429,286.85734928765424
201810041130,408.70906806936972,5.4194168392030413,0.86473822507167653,0,-5.4224876549284398,0,36.219778834409887,0,3.6917878889470161,1,0.80545331804969944,0,2.3313033619030783,4.0400684337499309,0.24793346171467676,0.84842180309694581,9465.9489800739830,2.28186313337082683E-003,99.970452174601675,182.77787051557385,273.83455652110234
201810041200,408.78400106347351,5.2982595355309536,0.69579007452377617,0,-18.881409456490523,1,42.596887273666646,0,3.2308407648665143,1,0.94726288329864605,0,-0.11000113724535686,-4.4072956297190249,6.06161466959510217E-002,0.76064311853764000,1960.3458458423661,1.10184639337037090E-002,107.91558392659843,197.30410532802958,295.59750329671476
201810041230,408.86152307721898,5.1442027679025939,0.79865032393364788,0,-8.5509495507237787,0,33.848279526401136,0,1.5060451952518892,0,0.75243735823954827,0,-9.1023167683021189,-5.6182429482991942,6.28461287390860712E-002,0.81402616499009373,5308.1972506906368,4.06917809943661748E-003,109.76631769478975,200.68783691754430,300.66694981443345
201810041300,408.82597477112404,5.0914194626690499,0.39569593228507938,0,-11.551438978727687,1,31.065106404753728,0,4.75719907775639106E-002,1,0.69057981599530116,0,0.41767419718728888,-1.9265500881797075,-2.88432151343694550E-002,0.57273120007148126,1369.4436397145766,1.57728287412411752E-002,102.83215086074426,188.00996840582673,281.67319257376556
201810041330,408.83882502777703,5.0015746896563851,0.41404246023044244,0,18.003680319363056,0,44.555513035589350,0,-0.22703889173822023,0,0.99065133887658485,0,4.4910221110211435,-3.2780223296633126,1.04243809921204765E-002,0.58590639819656654,-941.01978304679199,-2.29538213639510144E-002,109.11715543561503,199.50096126808938,298.88879381448982
201810041400,408.62902702134750,5.0108096143364840,0.48659691639558600,0,21.125189732871203,0,47.036837953586193,0,-1.2381618441366071,0,1.0459835699749409,0,3.8597893398653818,0.33680660174134808,-0.17015132643592618,0.63524825724438749,-1022.3895001576955,-2.11269775331890362E-002,108.90976077771013,199.12177768830566,298.32070771567891
201810041430,408.41737487679660,5.0999011182239489,0.57461771567947451,0,49.307015563005422,0,48.577195435980762,1,-1.3427962604213195,0,1.0804972908780219,1,5.9829035359316531,3.2464000005363491,-0.17154562945148202,0.69054842606210698,-562.80218987530213,-3.83793815812725064E-002,113.40378169115834,207.33828121254601,310.63052723796466
201810041500,410.27350831629843,5.4953966446458482,0.69697392694340676,0,134.55021955313418,0,2.9010483316829925,2,-0.35375246723735554,2,6.45185919194675717E-002,2,-3.5154192928628190,14.430635035241664,1.5062011642341673,0.76012854091302473,-275.22468363083743,-7.84813328334037497E-002,114.74522042648087,209.79085905065696,314.30493575765126
201810041530,429.38478642861105,5.7487295945431356,0.90513285706971736,0,150.00381061052653,0,-65.357704619634077,2,8.6963572754420717,2,-1.4534755591512019,2,-1.0884251928063096,9.2494095712134996,15.517544700710204,0.86601624736867611,-365.20581122341702,-5.91447324664449575E-002,120.40850676928272,220.14515269783760,329.81755444046598
201810041600,416.59471665264437,5.8141460098573896,0.65413747784603704,0,111.90865218288486,0,276.74071491982983,1,-53.753500610717083,1,6.1561823341011888,1,7.3076170599990009,2.3864456535426273,-10.379492900465747,0.73641868450809833,-301.13618838995569,-7.17283436291261262E-002,108.30670979948864,198.01920816687198,296.66885765809906
201810041630,412.09566978145972,5.8949065357976691,0.90954008312398538,0,133.09941710119836,0,-9999.,-9999.,-76.303502517067386,2,-9999.,-9999.,1.3246992127240453,-841.85092649712226,-3.6519899278742103,0.86827027805895296,-415.13139689410286,-5.20317185392508638E-002,120.29905994580088,219.94504899823878,329.51776263479871
201810041700,412.45695382678861,5.9739073032593435,0.76611398795360508,0,134.10598134565313,0,-75.638019247885822,2,-26.823844342321046,1,-1.6824935013346924,2,-2.7702760700895248,2.8855601695864843,0.29353565102523982,0.79651819536606472,-318.19756768293121,-6.78823542156154341E-002,113.98066400019081,208.39300606063318,312.21069725643048
201810041730,408.11524545999964,5.5402575039490980,0.61747278588821941,0,204.84729452755633,0,73.385876303761080,0,-2.4391920211457858,0,1.6337097826978049,0,19.970454547406867,-15.779551998267410,-3.5170504065983588,0.71609278075860239,-151.36906605277602,-0.14269758388063908,112.06052386215703,204.88237749102009,306.95113593886714
201810041800,408.03430537396218,5.2441656534439005,0.85677970029165496,0,262.71685483264758,0,120.69544165454411,0,-2.5287938162677257,0,2.6884745328891073,0,14.406656027833311,-10.744272678092004,-6.54228241736153487E-002,0.84439716418574162,-193.50883628955239,-0.11162280965650245,119.62483508966952,218.71235092824176,327.67095629894482
201810041830,407.94504974773088,4.9901574662545123,0.56493406001483670,0,250.77887249603774,0,89.496293939307378,0,-1.9741420349737417,0,1.9948733736097357,0,16.775595859807911,-9.1842719121317806,-7.19354395579102912E-002,0.68662455026429947,-108.96901664710907,-0.19822148225812264,105.08793220238377,192.13425614290253,287.85212714752925
201810041900,407.94959831961700,4.6247013381372666,0.67806236087456950,0,278.23925833477614,0,139.84485568841197,0,-0.71829229619107160,0,3.1188594454397545,0,13.541562707247019,-13.175851186652872,3.65736077917136167E-003,0.75306503617660536,-129.54305177350173,-0.16673993474977189,114.42671116236798,209.20852253253898,313.43248953790334
201810041930,407.74895141927249,4.8037304368428426,0.50179649607674326,1,281.15116008789903,0,82.288709429407803,0,-4.5526414157752821,0,1.8361290212096777,0,12.076962781479576,6.4405628001483954,-0.16106292905701805,0.64839701300447872,-81.844323222937376,-0.26391567734225541,112.30611529385426,205.33139695553240,307.62384891876582
201810042000,407.92214952003195,4.8037802625833130,0.47340428441328686,1,217.68595788114121,0,61.771877904531621,0,-2.4381419196234244,0,1.3785353293964306,0,3.6229208382986688,1.79096977688637132E-003,0.13893277724439274,0.63000509596113075,-96.953935665570512,-0.22278621132520376,108.66129781576520,198.66750815067294,297.64012916955727
201810042030,407.95499158140024,4.6280813564301004,0.25005791716051440,0,136.18384940473607,0,62.103374554597806,0,-3.3130186268143795,0,1.3854701480380043,0,-8.2069253930432104,-6.3259003255285320,2.63794458743232887E-002,0.45755888025620256,-59.372262140546823,-0.36380624926953581,99.882918693056965,182.61783139393808,273.59478875394575
201810042100,407.97622575430432,4.4950143929368096,0.15552912775652977,0,160.71582643717016,0,78.403980337696765,0,-2.0142320074975348,0,1.7494063903210921,0,3.9922261611216299,-4.7878593326034569,1.70474365456221612E-002,0.36093364761065244,-24.695771988709222,-0.87464364385431681,83.464424905784639,152.59958834078492,228.62199062025451
201810042130,407.98516385614471,4.5162728720009717,0.25558578099392110,1,80.367469166115512,0,50.029574865394196,1,-1.1248919436483673,1,1.1162624223090447,1,-0.74068614295772617,0.76485765928922078,7.17518695733798846E-003,0.46271065528708460,-104.03699277627207,-0.20761845785421776,116.12501116517414,212.31355658267370,318.08439635628986
201810042200,408.01407899892649,4.4907263772432113,8.34510742656105753E-002,0,33.116768650377281,1,18.821934176030904,1,-1.4071256236833247,0,0.41979954504031786,1,-9.1553167728317604,-0.92047262347452619,2.32371366491268237E-002,0.26425325573574726,-47.016220901258315,-0.45941591191183789,100.45524711510475,183.66423028422946,275.16248497044529
201810042230,407.92844332443997,4.8523464655853505,0.12650018069644428,0,-0.31280162474155682,2,45.082705466884555,0,-0.94347261466064813,1,1.0052720013841496,0,-5.8992133713707799,13.046214371440916,-6.88906529965597897E-002,0.32520375004257540,9278.8730016069185,2.32786891212535254E-003,124.36966173218788,227.38740731560696,340.66777156946353
201810042300,408.17828158033223,4.9888137870811660,3.67902092740103187E-002,0,-17.974138555233537,0,29.393414539652046,0,-0.32494610474544650,2,0.65517828511914922,0,-9.3190269991608634,4.9320747568005423,0.20126551919825905,0.17526084344552689,25.275496439244208,0.85458262123241957,115.31192923501941,984.00000000000000,4575.0000000000000
201810042330,408.71633391758803,5.1683339523332741,9.72913224360804837E-003,1,-11.927215158202596,1,13.717707528625340,1,0.34070209661057960,1,0.30556917608060546,1,-16.028885223710322,6.5097429317261062,0.43461341332402736,9.00091183730615391E-002,5.1605254264694809,4.1856203031592099,475.20047694156676,3670.0000000000000,-9999.
201810050000,409.49174594391559,5.2701593964594391,0.11163041805427591,0,-1.1713394200596607,2,23.301601923270137,0,0.43545771079604872,2,0.51868359388844443,0,-17.786785974071375,3.7049125103875227,0.62801628998309533,0.30448732653079325,2034.1523588890545,1.06186736237381795E-002,110.19051758256063,201.46340960400462,301.82889902659826
